Location: Brunembert
(50.7122°N, 1.8935°E)
Time: 04:51:34
(UTC+00:00)

Terra - Pass Details

Date: 22 April 2021
Orbit: 701 x 703 km, 98.2° (Epoch: 06 May)

Event Time Altitude Azimuth Distance (km) Brightness Sun altitude
Exits shadow 21:03:52 30° 121° (ESE) 1,256 2.6 -17.1°
Maximum altitude 21:05:46 46° 68° (ENE) 948 2.3 -17.3°
Drops below altitude 10° 21:10:20 10° 356° (N) 2,182 5.1 -17.8°
Sets 21:12:39 0° 350° (N) 3,104 6.2 -18.0°
